Vertical_Velocity
0 1 2 2 2 1 -0 -1 -1 -2 -2 -1 -3 -3 -5 -5 -4 -4 -3 -5 -2 -4 0 3 3 2 2 -1 -6 -4 -2 -2 -6 -5 -3 3 1 1 -2 9 4 -6 5 7 -2 9 3
-2 -2 0 1 1 1 -1 -2 -2 -2 -2 -2 -2 -4 -4 -6 -2 -2 -3 -4 -3 -5 -6 -3 1 0 -0 -1 -4 -1 -5 -4 -5 -2 2 4 8 1 -7 -5 -6 14 -1 1 7 5 11
-2 -1 -1 -1 -1 -1 -2 -2 -2 -1 -2 -3 -4 -4 -4 -5 -4 -3 -5 -1 -5 -3 -4 -4 -4 -2 0 2 -1 -2 -3 -3 -1 -4 3 1 0 0 6 -4 11 -12 -7 -21 2 4 10
-2 -3 -2 -2 0 -2 -2 -1 -2 -1 -3 -3 -4 -3 -3 -4 -3 -4 -5 -1 -4 -7 -1 -1 -2 -4 -2 -0 0 0 -3 -3 -2 -3 2 14 -1 0 12 -4 -3 0 -2 -11 11 3 7
1 -1 -2 -2 -0 -1 -1 -1 0 -0 -2 -2 -3 -5 -2 -5 -2 -2 -5 -3 -5 -4 -5 1 -2 -1 0 -0 -2 -0 -0 -1 0 0 3 0 4 2 -5 8 9 5 3 7 1 5 3
-1 0 -1 1 -2 -1 -0 -1 -2 -1 -1 -2 -3 -3 -2 -4 -2 -2 -5 -5 1 -4 -9 -2 0 -2 -0 0 -1 -0 -1 1 1 2 4 3 2 1 6 0 -13 -0 3 3 -6 7 -2
-1 -1 -1 -3 -2 -2 0 -3 -2 -3 -2 -3 -3 -3 -3 -2 -2 -2 -3 -4 9 0 3 -8 -4 1 -4 -2 -0 0 1 1 1 1 1 1 -1 3 7 3 18 17 11 4 8 -2 0
-0 -1 -1 0 -1 -2 -2 1 -2 -2 -3 -3 -3 -2 -3 -1 -2 -1 -3 -2 -3 -4 -5 -2 -2 -1 1 -0 -1 0 0 -0 -0 -1 -1 2 8 3 -2 -4 -1 -9 -5 -0 -22 -12 -1
1 -0 -1 -1 -1 -2 -2 -2 -1 -1 -2 -3 -2 -1 -2 -2 -2 -2 -4 -2 -2 -0 -4 -5 -3 -3 -0 1 1 0 -1 0 -1 -0 4 -5 -8 -2 1 4 -3 9 5 11 3 4 -0
1 1 -1 -1 -2 -2 -1 -0 -3 -2 -3 -2 -3 -2 -0 -3 -2 -2 -2 -1 -1 -3 -5 -2 -5 -1 -1 1 -0 -0 0 -0 -2 1 3 2 4 -0 -3 0 3 -3 8 1 -9 -5 2
-1 1 -1 -1 -4 -4 -1 -0 -2 -2 -1 -2 -1 -2 -2 -2 -2 -2 -1 -2 -1 -2 -7 -0 -0 -1 -1 -0 -0 -1 -1 0 0 -0 -2 1 -0 3 -1 -6 2 -7 -4 -2 -2 1 -2
1 0 2 0 -2 -2 -1 -1 -2 -2 -1 -1 -1 -2 -3 -1 -2 -1 -2 -2 -0 -2 -4 -2 1 -1 2 -3 1 1 -2 -2 -0 -1 -2 -2 -1 -1 2 3 4 2 3 0 2 2 -12
1 -2 1 0 1 -1 -0 -1 -1 -4 -2 -0 1 -2 -1 -1 -1 -3 -1 -1 -0 -7 -0 0 -2 -1 -2 -6 -1 1 -1 -2 -2 1 -2 -3 -2 -3 -3 -3 1 -0 1 2 0 -9 -9
-1 -0 -2 -0 -0 0 -1 -0 1 -0 -1 -2 -0 1 -2 -2 -1 0 -4 4 -5 -2 -2 -1 -0 -2 1 -2 -4 -4 3 -3 -3 -3 -1 -3 -1 -1 -0 2 6 1 -2 -2 -5 -6 1
2 1 -1 -1 -0 -2 -1 0 1 0 -1 0 -2 -3 -0 -0 -0 -1 -3 0 -2 -1 1 0 -0 3 -2 -2 1 -1 -4 3 -2 -2 -2 -2 -2 -0 0 -0 -3 3 -4 -1 2 3 -2
1 1 2 1 -3 -1 -1 -0 -2 0 1 -1 -0 -0 1 -0 -0 1 4 -0 -2 -1 -1 1 1 1 -2 -1 -1 0 -1 -3 5 1 -1 -1 1 2 -1 -2 0 -3 0 -4 2 2 2
-0 2 0 -2 0 1 0 -0 -1 1 1 0 -1 -1 -1 1 -2 -2 4 -0 1 -1 -1 2 -1 2 2 0 -0 -1 2 3 -2 4 6 -0 -2 -1 2 3 -0 -2 -1 -3 -1 -1 -1
2 1 0 -0 0 -1 1 -1 -1 -3 -1 1 -1 -0 -1 -1 3 -0 0 1 3 2 1 -0 2 -0 1 3 2 -1 -1 2 4 0 0 8 3 -1 2 0 2 1 -2 3 -2 -3 -3
1 1 1 -2 -0 1 2 2 -0 0 -1 -0 1 0 -1 0 -1 1 1 -0 1 1 1 1 3 2 5 -0 4 3 1 -1 -0 4 3 -0 4 5 -0 -3 -1 2 4 2 1 3 -1
2 2 2 3 -1 1 -0 1 -1 1 -0 -2 -1 0 -0 -0 -0 1 0 3 1 -0 1 -0 1 2 0 2 1 2 3 2 1 -1 1 3 2 2 3 4 0 -0 -2 -1 -4 -4 13
1 1 2 2 -1 3 1 -0 1 1 0 -0 -2 -2 -0 1 4 1 1 -0 2 2 0 1 0 0 2 0 2 1 1 2 1 2 -1 2 2 2 1 0 2 1 -0 -3 -4 1 -3
1 1 1 1 1 -2 1 2 -1 -0 1 1 -2 -2 -3 1 -3 -2 -1 2 0 3 2 1 0 2 1 0 -0 -1 1 -0 1 3 3 0 2 1 1 1 1 -1 -1 -0 1 2 1
1 2 1 1 -0 1 0 -1 2 3 -1 -2 -0 -1 -2 -1 3 -0 0 -1 -1 -1 7 -0 -1 3 2 2 1 1 0 -0 1 0 1 2 -0 1 2 -1 -3 5 -2 -2 -1 3 -2
2 1 2 0 1 2 0 1 -2 -0 2 4 0 -2 -4 2 4 -3 3 -2 -0 1 -1 4 0 1 -1 3 4 3 0 3 -0 2 -1 2 -1 -3 2 0 -2 2 4 0 1 2 2
2 2 3 2 0 0 2 3 1 0 -1 -1 -1 -2 -4 1 -3 4 -0 -0 -2 -2 -4 1 1 -2 1 -0 -1 3 6 7 4 3 2 0 -2 -1 -1 1 1 -5 5 0 -1 4 0
2 2 1 3 1 0 1 1 1 -0 -0 1 0 -2 -6 -6 16 -1 -1 -1 3 -0 2 4 -1 -5 -2 0 -1 -1 1 -1 -1 5 4 2 1 1 -3 -4 -6 4 2 -2 -2 3 2
-3 -0 3 3 0 2 2 2 1 2 -1 1 3 -4 -7 -13 21 -1 1 -0 3 -4 -4 -4 -1 2 -1 -0 -3 -1 -0 -1 3 -0 3 1 1 1 -1 -5 4 5 1 0 -1 -3 -1
-2 1 -1 1 -0 -2 0 1 0 2 -0 -0 7 -6 -6 -14 16 7 2 5 -3 4 -2 -6 1 8 -2 0 1 -0 -5 1 4 1 3 0 -6 6 1 -3 4 1 1 2 -1 -2 -1
0 -1 -0 -0 4 -0 2 1 1 0 -2 -3 13 -4 -14 -16 3 9 5 7 -2 1 1 -8 -1 5 -10 -4 -0 -5 -4 -2 1 -3 5 -4 -1 -2 0 2 -4 -5 0 -0 2 2 2
Height
5808 5806 5803 5800 5797 5794 5790 5786 5781 5775 5769 5761 5754 5745 5734 5722 5711 5701 5689 5680 5671 5663 5656 5653 5653 5655 5658 5662 5665 5669 5673 5676 5679 5685 5691 5700 5709 5719 5731 5743 5753 5765 5775 5784 5791 5799 5808
5808 5806 5803 5801 5797 5794 5790 5785 5780 5774 5769 5761 5752 5743 5733 5722 5711 5701 5690 5680 5672 5664 5657 5653 5654 5655 5658 5660 5663 5666 5669 5671 5674 5679 5683 5691 5700 5708 5721 5731 5744 5757 5765 5774 5783 5794 5803
5806 5805 5803 5801 5798 5794 5790 5785 5780 5774 5768 5760 5753 5743 5733 5722 5712 5702 5693 5683 5674 5668 5661 5658 5657 5657 5657 5661 5661 5664 5667 5669 5671 5674 5677 5684 5694 5705 5713 5723 5736 5742 5754 5765 5776 5787 5796
5804 5803 5801 5799 5797 5794 5790 5785 5780 5774 5767 5760 5753 5744 5735 5724 5714 5705 5696 5687 5678 5672 5666 5662 5659 5657 5657 5659 5661 5664 5666 5668 5670 5672 5675 5684 5690 5699 5711 5720 5729 5739 5749 5759 5772 5780 5789
5804 5803 5801 5799 5796 5793 5789 5785 5779 5774 5767 5760 5753 5745 5736 5727 5717 5708 5700 5691 5683 5676 5670 5665 5661 5660 5660 5660 5660 5663 5666 5668 5670 5672 5675 5681 5688 5696 5704 5716 5725 5733 5746 5756 5766 5775 5781
5805 5803 5801 5799 5795 5792 5789 5784 5779 5773 5768 5761 5753 5746 5738 5730 5721 5711 5704 5695 5689 5681 5674 5670 5665 5665 5663 5662 5661 5662 5665 5668 5670 5673 5676 5681 5687 5695 5702 5710 5721 5734 5742 5749 5758 5770 5775
5805 5803 5801 5798 5795 5792 5789 5784 5779 5774 5768 5762 5755 5747 5741 5733 5725 5716 5708 5700 5698 5687 5680 5675 5671 5667 5665 5665 5664 5664 5665 5668 5670 5673 5677 5680 5687 5694 5700 5708 5717 5721 5731 5742 5751 5761 5768
5805 5803 5801 5799 5796 5792 5789 5785 5780 5774 5769 5763 5757 5750 5743 5736 5728 5720 5712 5705 5698 5691 5683 5677 5674 5671 5668 5667 5666 5666 5667 5669 5671 5674 5678 5683 5686 5691 5696 5703 5708 5716 5727 5737 5742 5753 5763
5805 5803 5801 5799 5796 5793 5790 5786 5781 5775 5770 5764 5758 5752 5745 5739 5732 5725 5717 5709 5702 5696 5689 5682 5677 5674 5672 5669 5668 5667 5669 5670 5672 5674 5679 5682 5687 5691 5696 5701 5708 5717 5725 5733 5740 5745 5753
5805 5803 5801 5799 5796 5793 5790 5786 5782 5777 5772 5766 5760 5754 5748 5741 5736 5728 5721 5714 5707 5700 5693 5687 5682 5678 5675 5672 5671 5670 5670 5673 5674 5676 5679 5682 5686 5690 5694 5699 5704 5711 5719 5725 5731 5739 5752
5803 5802 5801 5798 5796 5793 5789 5786 5782 5778 5773 5767 5762 5756 5750 5743 5738 5731 5726 5718 5712 5705 5698 5693 5686 5681 5678 5676 5674 5673 5673 5674 5676 5679 5681 5684 5686 5689 5692 5696 5701 5706 5714 5722 5730 5737 5745
5801 5801 5799 5798 5796 5793 5789 5786 5783 5779 5774 5769 5764 5758 5753 5747 5741 5735 5728 5723 5717 5711 5703 5699 5693 5687 5683 5678 5677 5676 5676 5677 5677 5679 5682 5684 5686 5689 5692 5695 5699 5706 5713 5720 5724 5732 5739
5798 5798 5798 5797 5794 5792 5789 5786 5783 5779 5775 5770 5765 5760 5755 5749 5744 5738 5731 5726 5723 5713 5710 5706 5700 5693 5688 5684 5682 5680 5679 5679 5680 5681 5681 5684 5686 5688 5691 5694 5698 5703 5710 5716 5721 5727 5735
5796 5795 5795 5794 5793 5791 5788 5785 5782 5779 5775 5771 5767 5762 5756 5752 5747 5741 5735 5729 5723 5718 5714 5710 5705 5700 5695 5689 5687 5685 5682 5682 5682 5682 5682 5683 5686 5687 5690 5694 5699 5701 5707 5713 5719 5725 5734
5792 5792 5792 5791 5791 5789 5787 5784 5781 5778 5775 5771 5767 5763 5758 5753 5749 5744 5739 5734 5726 5722 5718 5714 5710 5706 5701 5696 5693 5690 5688 5686 5685 5686 5687 5686 5686 5687 5691 5694 5698 5702 5707 5713 5719 5725 5729
5788 5788 5788 5788 5787 5785 5784 5782 5780 5776 5774 5771 5767 5763 5760 5755 5750 5746 5743 5737 5731 5726 5721 5718 5713 5709 5705 5702 5699 5695 5693 5691 5688 5688 5689 5690 5690 5690 5692 5695 5699 5702 5707 5712 5717 5723 5727
5783 5783 5784 5784 5783 5782 5780 5779 5777 5775 5772 5769 5766 5763 5759 5755 5751 5747 5743 5738 5734 5729 5724 5720 5716 5713 5710 5707 5704 5701 5698 5696 5694 5692 5691 5692 5694 5695 5694 5696 5699 5704 5707 5712 5716 5721 5725
5777 5778 5778 5779 5778 5777 5776 5774 5773 5771 5770 5767 5764 5761 5758 5754 5751 5747 5743 5739 5736 5731 5727 5722 5718 5715 5712 5709 5707 5705 5702 5699 5697 5697 5695 5693 5694 5696 5697 5698 5700 5703 5707 5711 5714 5720 5722
5771 5772 5772 5772 5772 5772 5771 5770 5768 5767 5765 5764 5761 5759 5755 5752 5749 5746 5742 5739 5736 5732 5728 5725 5720 5717 5714 5711 5709 5707 5705 5703 5701 5698 5698 5697 5696 5697 5699 5702 5702 5705 5708 5710 5712 5715 5719
5763 5765 5765 5766 5766 5766 5765 5765 5763 5762 5761 5759 5758 5756 5753 5750 5747 5744 5741 5737 5734 5731 5728 5725 5722 5717 5714 5712 5710 5708 5706 5705 5703 5702 5700 5699 5698 5698 5699 5701 5704 5705 5707 5708 5710 5712 5718
5755 5757 5757 5758 5758 5758 5758 5758 5757 5756 5754 5754 5752 5751 5749 5747 5745 5741 5738 5735 5731 5729 5727 5724 5721 5718 5715 5712 5710 5707 5706 5705 5703 5702 5702 5701 5700 5699 5699 5700 5702 5703 5706 5707 5709 5711 5711
5746 5748 5749 5749 5750 5750 5750 5750 5749 5749 5747 5746 5746 5745 5744 5743 5739 5737 5735 5732 5729 5726 5723 5721 5719 5716 5714 5711 5708 5706 5705 5704 5703 5702 5700 5700 5701 5699 5699 5699 5700 5701 5702 5703 5705 5707 5710
5737 5738 5740 5740 5741 5741 5741 5741 5741 5740 5739 5738 5737 5736 5735 5737 5735 5732 5730 5728 5724 5722 5721 5716 5714 5712 5710 5709 5707 5705 5702 5701 5701 5700 5699 5698 5697 5697 5699 5698 5697 5699 5700 5701 5702 5703 5704
5725 5727 5729 5730 5730 5731 5731 5731 5731 5730 5730 5730 5728 5727 5726 5726 5727 5725 5724 5721 5719 5717 5714 5712 5708 5706 5705 5704 5702 5701 5700 5698 5696 5696 5695 5695 5694 5693 5694 5695 5695 5697 5697 5697 5697 5697 5698
5713 5715 5716 5717 5719 5720 5720 5720 5720 5719 5719 5719 5718 5717 5715 5715 5717 5720 5715 5713 5712 5709 5707 5704 5703 5701 5697 5697 5696 5694 5694 5695 5693 5692 5690 5689 5689 5688 5687 5688 5692 5693 5693 5691 5690 5693 5691
5699 5701 5703 5704 5706 5707 5708 5708 5708 5708 5708 5708 5707 5706 5704 5701 5708 5707 5706 5704 5703 5701 5699 5699 5696 5694 5692 5688 5688 5687 5686 5685 5686 5687 5685 5683 5681 5682 5680 5680 5682 5686 5685 5684 5682 5685 5682
5684 5687 5688 5689 5691 5692 5694 5693 5694 5695 5695 5695 5695 5693 5692 5689 5695 5694 5695 5693 5693 5692 5688 5685 5686 5686 5685 5682 5680 5679 5677 5679 5679 5678 5679 5676 5674 5675 5671 5668 5673 5677 5673 5672 5672 5673 5671
5668 5670 5671 5672 5673 5675 5677 5678 5678 5679 5680 5680 5681 5680 5679 5676 5678 5681 5682 5681 5679 5681 5679 5674 5673 5676 5674 5673 5671 5671 5667 5668 5670 5668 5669 5668 5666 5666 5663 5661 5661 5661 5662 5661 5659 5657 5656
5651 5653 5654 5654 5655 5657 5658 5660 5661 5662 5662 5664 5666 5665 5662 5661 5663 5666 5666 5669 5667 5666 5666 5662 5662 5661 5660 5661 5661 5658 5658 5659 5660 5660 5660 5658 5658 5656 5656 5654 5651 5648 5647 5646 5645 5643 5642